Regional Weather Roundup
Issued by NWS

Home | Current Version | Previous Version | Text Only | Print | Product List | Glossary Off
Versions: 1 2 3 4 5 6 7 8 9 10 11 12 13 14 15 16 17 18 19 20 21 22 23 24 25 26 27 28 29 30 31 32 33 34 35 36 37 38 39 40 41 42 43 44 45 46 47 48 49 50

000
ASUS45 KTFX 010110
RWRMT
MONTANA REGIONAL WEATHER ROUNDUP
NATIONAL WEATHER SERVICE GREAT FALLS MT
700 PM MDT TUE MAY 31 2016

NOTE: "FAIR" INDICATES FEW OR NO CLOUDS BELOW 12000 FEET WITH NO
SIGNIFICANT WEATHER AND/OR OBSTRUCTIONS TO VISIBILITY.

MTZ001>007-043-010200-
WEST OF THE DIVIDE

CITY           SKY/WX    TMP DP  RH WIND       PRES   REMARKS
KALISPELL      MOSUNNY   68  35  29 CALM      30.07F
MISSOULA       SUNNY     71  35  26 NE8       30.07F
BUTTE          CLOUDY    58  32  37 SE10      30.16R
MULLAN PASS    SUNNY     58  29  33 N6        30.17S
ANACONDA         N/A     61  30  31 N3        30.14S
DEER LODGE       N/A     63  30  29 N3        30.14F
EUREKA           N/A     73  36  25 CALM      30.06F
HAMILTON         N/A     70  34  26 N12       30.06F
LIBBY            N/A     72  34  25 N6        30.05F
$$

MTZ008-052>055-010200-
SOUTHWEST MONTANA

CITY           SKY/WX    TMP DP  RH WIND       PRES   REMARKS
BOZEMAN        SUNNY     62  32  32 VRB3      30.16S
DILLON         SUNNY     63  32  31 NE7       30.12S
W YELLOWSTONE  SUNNY     57  23  26 N7        30.18S
ENNIS          SUNNY     59  32  36 N9        30.20F
$$

MTZ009-010-012-014-046-048-049-054-010200-
EAST SLOPES AND CENTRAL MONTANA

CITY           SKY/WX    TMP DP  RH WIND       PRES   REMARKS
CUT BANK         N/A     63  32  31 VRB5      30.13F
GREAT FALLS    MOSUNNY   62  34  35 NW6       30.14S
MALMSTROM AFB  SUNNY     62  34  35 N7        30.14S
HELENA         SUNNY     66  33  29 N7        30.14F
CHOTEAU          N/A     61  36  39 N5        30.17S
$$

MTZ011-013-016-021-045-047-050-051-010200-
NORTH CENTRAL MONTANA

CITY           SKY/WX    TMP DP  RH WIND       PRES   REMARKS
HAVRE          MOSUNNY   61  45  55 W10       30.11F
LEWISTOWN      CLOUDY    58  39  49 NW9       30.15F
N BAR RANCH      N/A     55  39  54 NW16G23   30.16F
CHINOOK          N/A     61  46  59 W9        30.10F
$$

MTZ017>020-022>027-061-062-010200-
NORTHEAST MONTANA

CITY           SKY/WX    TMP DP  RH WIND       PRES   REMARKS
GLASGOW        CLOUDY    59  44  57 NW18      30.02R
JORDAN           N/A     60  46  59 NW21G29   30.06R
SIDNEY         CLOUDY    54  52  94 NW16      29.94R
WOLF POINT     CLOUDY    63  45  51 N20       29.98R
PLENTYWOOD       N/A     55  48  76 N18G26    29.94R
POPLAR           N/A     59  48  67 N17G23    29.97R
$$

MTZ028>42-056>058-010200-
SOUTHCENTRAL AND SOUTHEAST MONTANA

CITY           SKY/WX    TMP DP  RH WIND       PRES   REMARKS
BAKER          MOSUNNY   54  50  86 N17       29.98S
BILLINGS       MOSUNNY   61  39  44 NE9       30.13S
LIVINGSTON     SUNNY     60  31  33 N8        30.15S
MILES CITY     CLOUDY    59  46  62 NW23G31   30.05R
FORSYTH          N/A     57  45  62 NW10G23   30.08S
$$

REGIONAL REPORTS...DAKOTAS

CITY           SKY/WX    TMP DP  RH WIND       PRES   REMARKS
WILLISTON      LGT RAIN  53  50  89 N14G24    29.92R
MINOT          LGT RAIN  54  50  86 NW24G32   29.74R FOG
DICKINSON      CLOUDY    49  46  90 NW20G30   29.88R
BEACH          PTSUNNY   54  54 100 NW15      29.99R
CROSBY         LGT RAIN  50  50 100 N18G28    29.93R
WATFORD CITY   LGT RAIN  50  50 100 NW16G23   29.91R
BISMARCK       CLOUDY    55  50  83 NW16G37   29.73R
GRAND FORKS    LGT RAIN  60  49  66 SE12      29.65F
FARGO          CLOUDY    69  44  40 S21       29.65F
BUFFALO SD       N/A     57  46  66 NW26G36   29.92R
RAPID CITY     MOSUNNY   58  41  53 NW25G36   30.03S
$$

REGIONAL REPORTS...WYOMING/IDAHO/WASHINGTON

CITY           SKY/WX    TMP DP  RH WIND       PRES   REMARKS
GILLETTE       MOSUNNY   56  38  50 NW21      30.11R
SHERIDAN       SUNNY     59  40  49 NW20      30.12S
BUFFALO WY     SUNNY     56  38  50 N22G32    30.14R
CODY           SUNNY     57  36  44 N12       30.13S
YELLOWSTONE LA   N/A     50  24  36 VRB3      30.23S
IDAHO FALLS    SUNNY     70  31  23 NE10      30.08F
SALMON         SUNNY     72  30  21 NW3       30.00S
BOISE          SUNNY     79  21  11 NW10      30.00F
SPOKANE        PTSUNNY   75  32  20 VRB5      30.05F
$$

REGIONAL REPORTS...ALBERTA

CITY           SKY/WX    TMP DP  RH WIND       PRES   REMARKS
EDMONTON       MOSUNNY   64  37  36 E3        30.04F
CALGARY        PTSUNNY   63  34  34 SE9G20    30.07F
LETHBRIDGE     MOSUNNY   63  36  36 E8        30.10F
MEDICINE HAT   PTSUNNY   61  45  55 NW5       30.10S
WATERTON GATE    N/A     61  37  41 E7          N/A
CARDSTON         N/A     63  36  36 E2          N/A
MILK RIVER       N/A     61  36  39 NW5         N/A
ONEFOUR          N/A     59  43  55 NW14        N/A
$$

REGIONAL REPORTS...SASKATCHEWAN

CITY           SKY/WX    TMP DP  RH WIND       PRES   REMARKS
SWIFT CURRENT  MOSUNNY   59  48  67 NW14G20   30.03S
REGINA         LGT RAIN  52  50  93 N9        29.97S FOG
SASKATOON      PTSUNNY   61  43  51 NE10      30.04R
CYPRESS HILLS    N/A     50  43  76 NW6         N/A
VAL MARIE        N/A     54  50  87 NW13        N/A
ROCKGLEN         N/A     54  46  76 N16G22      N/A
ASSINIBOIA       N/A     63  41  45 NW1         N/A
$$



USA.gov is the U.S. government's official web portal to all federal, state and local government web resources and services.